Skip Page Navigation
NASA JPL Caltech
NASA Logo - Jet Propulsion Laboratory + View the NASA Portal
+ Center for Near-Earth Object Studies
JPL Home Earth Solar System Stars & Galaxies Technology
JPL Solar System Dynamics
BODIES ORBITS EPHEMERIDES TOOLS PHYSICAL DATA DISCOVERY FAQ SITE MAP
JPL Small-Body Database Browser
Search: [ help ]  
79798 (1998 VJ10)
Classification: Main-belt Asteroid          SPK-ID: 2079798
Ephemeris | Orbit Diagram | Orbital Elements | Mission Design | Physical Parameters | Discovery Circumstances | Close-Approach Data ]

[ show orbit diagram ]
Orbital Elements at Epoch 2459000.5 (2020-May-31.0) TDB
Reference: JPL 25 (heliocentric ecliptic J2000)
 Element Value Uncertainty (1-sigma)   Units 
e .1786051626350965 3.4222e-08  
a 2.417856953130388 1.0649e-08 au
q 1.986015218788136 8.2731e-08 au
i 3.51668680745962 4.3014e-06 deg
node 92.91221284969623 6.4423e-05 deg
peri 210.5236039094769 6.5647e-05 deg
M 337.809344727862 1.4114e-05 deg
tp 2459085.147075434983
(2020-Aug-23.64707544)
5.3979e-05 TDB
period 1373.233317488151
3.76
9.072e-06
2.484e-08
d
yr
n .26215501431213 1.7319e-09 deg/d
Q 2.84969868747264 1.2551e-08 au
  Orbit Determination Parameters
   # obs. used (total)      1119  
   data-arc span      12932 days (35.41 yr)  
   first obs. used      1985-01-20  
   last obs. used      2020-06-17  
   planetary ephem.      DE431  
   SB-pert. ephem.      SB431-N16  
   condition code      0  
   norm. resid. RMS      .54708  
   source      ORB  
   producer      Otto Matic  
   solution date      2020-Jun-24 00:03:31  

Additional Information
 Earth MOID = .971643 au 
 Jupiter MOID = 2.37943 au 
 T_jup = 3.491 
[ show covariance matrix ]

Ephemeris | Orbit Diagram | Orbital Elements | Mission Design | Physical Parameters | Discovery Circumstances | Close-Approach Data ]

Physical Parameter Table
Parameter Symbol Value Units Sigma Reference Notes
absolute magnitude H 15.5   n/a MPO436339  

79798 (1998 VJ10)          Discovered 1998-Nov-10 by LINEAR at Socorro
Reference: 20040504/Numbers.arcLast Updated: 2004-07-16

[ show close-approach data ]
Alternate Designations
 1998 VJ10 = 1985 BZ1 = 2001 KK5 
Ephemeris | Orbit Diagram | Orbital Elements | Mission Design | Physical Parameters | Discovery Circumstances | Close-Approach Data ]
ABOUT SSD CREDITS/AWARDS PRIVACY/COPYRIGHT GLOSSARY LINKS
FirstGov 2020-Jul-03 14:58 UT
(server date/time)  
NASA Home Page
Site Manager:   Ryan S. Park
Webmaster  Alan B. Chamberlin